Home > Weather > Ålesund > Past weeks

Flag for Norway Weather for the Past 2 Weeks in Ålesund, Norway

Now
41 °F

Scattered clouds.


Feels Like: 33 °F
Forecast: 39 / 45 °F
Wind: 14 mph from Southwest

Location: Alesund / Vigra

Current Time: Feb 6, 2016 at 3:14:56 PM

Latest Report: Feb 6, 2016 at 2:20 PM


Visibility: N/A

Pressure: 29.36 "Hg

Humidity: 76%

Dew point: 34 °F

Location of ÅlesundLocation

Historic Weather in Ålesund — Graph

°F

Ålesund Temperature Yesterday

Maximum temperature yesterday: 46 °F (at 11:20 PM)
Minimum temperature yesterday: 34 °F (at 11:50 AM)
Average temperature yesterday: 38 °F

High & Low Weather Summary for the Past Weeks

 TemperatureHumidityPressure
High57 °F (Jan 25, 5:20 PM)100% (Jan 31, 2:20 PM)29.98 "Hg (Jan 31, 2:20 PM)
Low32 °F (Jan 31, 12:20 PM)56% (Jan 22, 1:20 PM)28.20 "Hg (Jan 29, 6:50 PM)
Average40 °F80%29.30 "Hg
* Reported Jan 22 1:20 PM — Feb 6 1:50 PM, Ålesund, Weather by CustomWeather, © 2016

Note: Actual official high and low records may vary slightly from our data, if they occured in-between our weather recording intervals... More about our weather records

Advertising

Ålesund Weather History for the Previous 24 Hours

 ConditionsComfort  
Time TempWeatherWind HumidityBarometerVisibility
1:50 PM
Sat, Feb 6
41 °FPassing clouds.12 mph76%29.36 "HgN/A
1:20 PM41 °FScattered clouds.14 mph76%29.36 "HgN/A
12:50 PM41 °FScattered clouds.16 mph76%29.36 "HgN/A
12:20 PM39 °FScattered clouds.17 mph87%29.36 "HgN/A
11:50 AM39 °FScattered clouds.16 mph87%29.33 "HgN/A
11:20 AM39 °FScattered clouds.16 mph87%29.33 "HgN/A
10:50 AM37 °FDrizzle. Partly sunny.20 mph93%29.30 "HgN/A
10:20 AM37 °FDrizzle. Partly sunny.20 mph93%29.30 "HgN/A
9:50 AM37 °FDrizzle. Partly sunny.17 mph93%29.27 "HgN/A
9:20 AM37 °FDrizzle. Partly sunny.16 mph93%29.24 "HgN/A
8:50 AM37 °FPassing clouds.14 mph93%29.21 "HgN/A
8:20 AM37 °FPassing clouds.14 mph93%29.18 "Hg6 mi
7:50 AM39 °FPassing clouds.14 mph87%29.15 "HgN/A
7:20 AM41 °FPartly cloudy.17 mph87%29.15 "HgN/A
6:50 AM43 °FLight rain. Passing clouds.10 mph87%29.12 "HgN/A
6:20 AM45 °FLight rain. Passing clouds.12 mph76%29.12 "HgN/A
5:50 AM45 °FLight rain. Passing clouds.10 mph76%29.15 "HgN/A
4:50 AM45 °FOvercast.10 mph76%29.15 "HgN/A
4:20 AM45 °FMostly cloudy.12 mph76%29.18 "HgN/A
3:50 AM45 °FOvercast.10 mph76%29.21 "HgN/A
2:50 AM46 °FPassing clouds.13 mph66%29.24 "HgN/A
2:20 AM45 °FPassing clouds.12 mph76%29.24 "HgN/A
1:20 AM45 °FPassing clouds.8 mph76%29.27 "HgN/A
12:50 AM45 °FMostly cloudy.10 mph71%29.30 "HgN/A
12:20 AM46 °FOvercast.12 mph66%29.30 "HgN/A
11:50 PM
Fri, Feb 5
46 °FOvercast.12 mph66%29.30 "HgN/A
11:20 PM46 °FPassing clouds.13 mph66%29.33 "HgN/A
10:50 PM45 °FPassing clouds.12 mph76%29.33 "HgN/A
10:20 PM45 °FPassing clouds.8 mph76%29.33 "HgN/A
9:50 PM45 °FPassing clouds.5 mph71%29.36 "HgN/A
9:20 PM41 °FPartly cloudy.9 mph81%29.36 "HgN/A
8:50 PM39 °FPassing clouds.9 mph87%29.36 "HgN/A
8:20 PM39 °FPassing clouds.12 mph93%29.39 "HgN/A
7:50 PM39 °FPassing clouds.14 mph93%29.42 "HgN/A
7:20 PM39 °FLight rain. Passing clouds.15 mph93%29.42 "HgN/A
6:50 PM41 °FLight rain. Fog.13 mph87%29.45 "HgN/A
6:20 PM39 °FPassing clouds.13 mph87%29.45 "HgN/A
5:50 PM39 °FPassing clouds.17 mph87%29.45 "HgN/A
5:20 PM37 °FPassing clouds.16 mph87%29.45 "HgN/A
4:50 PM37 °FPartly cloudy.18 mph93%29.47 "HgN/A
4:20 PM37 °FDrizzle. Cloudy.22 mph87%29.47 "HgN/A
3:50 PM37 °FPartly sunny.21 mph87%29.50 "HgN/A
3:20 PM36 °FLight rain. Broken clouds.20 mph93%29.53 "HgN/A
Weather by CustomWeather, © 2016

See weather overviewHow to use our weather pages